STARLINK-3097 (49448 NORAD) Tracking and Keplerian Element Data

This shows tracking and keplerian element data for the satellite.

Feedback or suggestion? Click here.




ElementValue
Catalog49448
NameSTARLINK-3097
Epoch Orbit479
Epoch Day339.91667824
Epoch Year2021
RAAN22.2185
Inclination53.2185
Eccentricity0.0001728
Argument of Perigee24.4372
Mean Anonmoly53.0142
Mean Motion15.7319339
Decay Rate0.00047186
L11 49448U 21104AS 21339.91667824 .00047186 00000+0 33882-3 0 9990
L22 49448 53.2185 22.2185 0001728 24.4372 53.0142 15.73193390 4791

Live tracking and technical data element details for STARLINK-3097 (NORAD 49448). STARLINK-3097 can be tracked NOW for your location showing map with azimuth and elevation plus other details from your city location.

Track the satellite on the map from your city or location and see movement details for azimuth, elevation, latitude, longitude, range, height, and movement on the map or in text.







IsCatalogInMostPopularTable: catalog: 49448, numindb: 2
Update: records affected: 1



GetName: 49448 STARLINK-3097

Hit Count: updated at: Wed, 08 Dec 2021 15:16:16 GMT